Weather History for KMYP - April, 2013

Change the Weather History Date:

Sunday, April 7, 2013

  Actual Average (KGUC) Record (KGUC)
Temperature  
Mean Temperature 26 °F -  
Max Temperature 32 °F 48 °F 64 °F (2005)
Min Temperature 21 °F 21 °F 14 °F (1997)
Degree Days  
Heating Degree Days 38    
Moisture  
Dew Point 22 °F    
Average Humidity 87    
Maximum Humidity 100    
Minimum Humidity 64    
Precipitation  
Precipitation 0.00 in - - ()
Sea Level Pressure  
Sea Level Pressure 30.12 in    
Wind  
Wind Speed 31 mph (WSW)    
Max Wind Speed 43 mph    
Max Gust Speed 55 mph    
Averages and records for this station are not official NWS values.
T = Trace of Precipitation, MM = Missing Value Source: NWS Daily Summary

Daily Weather History Graph

Daily Weather History Graph

Search for Another Location

Airport or City:

Trip Planner

Search our weather history database for the weather conditions in past years. The results will help you decide how hot, cold, wet, or windy it might be!

Date:

Astronomy

Apr. 07, 2013 Rise Set
Actual Time 6:40 AM MDT 7:34 PM MDT
Civil Twilight 6:13 AM MDT 8:01 PM MDT
Nautical Twilight 5:41 AM MDT 8:33 PM MDT
Astronomical Twilight 5:08 AM MDT 9:06 PM MDT
Moon 4:57 AM MDT (4/7) 5:11 PM MDT (4/7)
Length of Visible Light 13h 47m
Length of Day
12h 54m
Waning Crescent, 8% of the Moon is Illuminated
Apr 7
Waning Crescent
Apr 10
New
Apr 18
First Quarter
Apr 25
Full
May 2
Last Quarter

Hourly Weather History & Observations

Time (MDT) Temp. Windchill Dew Point Humidity Pressure Visibility Wind Dir Wind Speed Gust Speed Precip Events Conditions
12:19 AM 24.8 °F 7.3 °F 23.0 °F 93% 30.20 in - West 32.2 mph 39.1 mph N/A   Overcast
12:39 AM 24.8 °F 7.6 °F 23.0 °F 93% 30.20 in - West 31.1 mph 39.1 mph N/A   Overcast
12:59 AM 24.8 °F 8.1 °F 23.0 °F 93% 30.20 in - WSW 28.8 mph 38.0 mph N/A   Overcast
1:19 AM 24.8 °F 7.1 °F 23.0 °F 93% 30.18 in - West 33.4 mph 43.7 mph N/A   Overcast
1:39 AM 24.8 °F 8.4 °F 23.0 °F 93% 30.18 in - WSW 27.6 mph 36.8 mph N/A   Overcast
1:59 AM 24.8 °F 7.9 °F 23.0 °F 93% 30.18 in - West 29.9 mph 44.9 mph N/A   Overcast
2:19 AM 24.8 °F - 23.0 °F 93% 30.17 in - North - - N/A   Overcast
2:39 AM 24.8 °F 6.8 °F 23.0 °F 93% 30.16 in - West 34.5 mph 39.1 mph N/A   Overcast
2:59 AM 24.8 °F - 23.0 °F 93% 30.15 in - North - - N/A   Overcast
3:19 AM 23.0 °F - 23.0 °F 100% 30.14 in - North - - N/A   Overcast
3:39 AM 23.0 °F - 23.0 °F 100% 30.14 in - North - - N/A   Overcast
3:59 AM 23.0 °F - 23.0 °F 100% 30.13 in - North - - N/A   Overcast
4:19 AM 23.0 °F - 21.2 °F 93% 30.12 in - North - - N/A   Overcast
4:39 AM 23.0 °F - 21.2 °F 93% 30.12 in - North - - N/A   Overcast
4:59 AM 23.0 °F - 21.2 °F 93% 30.11 in - North - - N/A   Overcast
5:19 AM 23.0 °F - 21.2 °F 93% 30.11 in - North - - N/A   Overcast
5:39 AM 23.0 °F - 21.2 °F 93% 30.11 in - North - - N/A   Overcast
5:59 AM 23.0 °F - 21.2 °F 93% 30.10 in - North - - N/A   Overcast
6:19 AM 23.0 °F - 21.2 °F 93% 30.11 in - North - - N/A   Overcast
6:39 AM 21.2 °F - 21.2 °F 100% 30.11 in - North - - N/A   Overcast
6:59 AM 23.0 °F - 21.2 °F 93% 30.11 in - North - - N/A   Overcast
7:19 AM 23.0 °F - 21.2 °F 93% 30.11 in - North - - N/A   Overcast
7:39 AM 23.0 °F - 21.2 °F 93% 30.11 in - North - - N/A   Overcast
7:59 AM 23.0 °F - 21.2 °F 93% 30.11 in - North - - N/A   Overcast
8:19 AM 23.0 °F - 21.2 °F 93% 30.12 in - North - - N/A   Overcast
8:39 AM 23.0 °F - 21.2 °F 93% 30.12 in - North - - N/A   Overcast
8:59 AM 23.0 °F - 21.2 °F 93% 30.12 in - North - - N/A   Overcast
9:19 AM 23.0 °F - 21.2 °F 93% 30.11 in - North - - N/A   Overcast
9:39 AM 23.0 °F - 21.2 °F 93% 30.11 in - North - - N/A   Overcast
9:59 AM 23.0 °F - 21.2 °F 93% 30.12 in - North - - N/A   Overcast
10:19 AM 23.0 °F - 21.2 °F 93% 30.12 in - North - - N/A   Unknown
10:39 AM 23.0 °F - 23.0 °F 100% 30.12 in - North - - N/A   Overcast
10:59 AM 23.0 °F 3.7 °F 23.0 °F 100% 30.13 in - West 38.0 mph 43.7 mph N/A   Unknown
11:19 AM 24.8 °F 6.8 °F 23.0 °F 93% 30.13 in - West 34.5 mph 46.0 mph N/A   Overcast
11:39 AM 26.6 °F 10.6 °F 23.0 °F 86% 30.14 in - West 28.8 mph 44.9 mph N/A   Overcast
11:59 AM 26.6 °F 8.5 °F 23.0 °F 86% 30.12 in - West 39.1 mph 49.5 mph N/A   Unknown
12:19 PM 28.4 °F 13.0 °F 24.8 °F 86% 30.12 in - WSW 28.8 mph 40.3 mph N/A   Overcast
12:39 PM 26.6 °F 8.3 °F 23.0 °F 86% 30.11 in - West 40.3 mph 47.2 mph N/A   Unknown
12:59 PM 26.6 °F 10.6 °F 23.0 °F 86% 30.12 in - West 28.8 mph 42.6 mph N/A   Overcast
1:19 PM 26.6 °F 8.9 °F 24.8 °F 93% 30.11 in - West 36.8 mph 46.0 mph N/A   Overcast
1:39 PM 28.4 °F 11.8 °F 23.0 °F 80% 30.10 in - West 34.5 mph 55.2 mph N/A   Unknown
1:59 PM 28.4 °F 10.4 °F 23.0 °F 80% 30.10 in - West 42.6 mph 51.8 mph N/A   Overcast
2:19 PM 28.4 °F - 23.0 °F 80% 30.12 in - North - - N/A   Overcast
2:39 PM 28.4 °F 13.0 °F 23.0 °F 80% 30.11 in - West 28.8 mph - N/A   Overcast
2:59 PM 28.4 °F 13.0 °F 23.0 °F 80% 30.10 in - WSW 28.8 mph 46.0 mph N/A   Overcast
3:19 PM 30.2 °F 14.1 °F 23.0 °F 75% 30.10 in - West 35.7 mph 41.4 mph N/A   Overcast
3:39 PM 30.2 °F 15.4 °F 21.2 °F 69% 30.09 in - SW 28.8 mph 43.7 mph N/A   Overcast
3:59 PM 32.0 °F 16.5 °F 21.2 °F 64% 30.09 in - West 35.7 mph 40.3 mph N/A   Mostly Cloudy
4:19 PM 30.2 °F 14.5 °F 21.2 °F 69% 30.09 in - West 33.4 mph 48.3 mph N/A   Overcast
4:39 PM 30.2 °F 12.9 °F 21.2 °F 69% 30.08 in - West 42.6 mph 51.8 mph N/A   Overcast
4:59 PM 32.0 °F 16.5 °F 23.0 °F 69% 30.08 in - West 35.7 mph 43.7 mph N/A   Overcast
5:19 PM 32.0 °F 16.5 °F 21.2 °F 64% 30.09 in - West 35.7 mph 47.2 mph N/A   Overcast
5:39 PM 32.0 °F 17.2 °F 21.2 °F 64% 30.09 in - West 32.2 mph 43.7 mph N/A   Overcast
5:59 PM 30.2 °F 13.9 °F 21.2 °F 69% 30.08 in - SW 36.8 mph 49.5 mph N/A   Overcast
6:19 PM 28.4 °F 13.0 °F 23.0 °F 80% 30.09 in - WSW 28.8 mph 47.2 mph N/A   Overcast
6:39 PM 28.4 °F 13.0 °F 23.0 °F 80% 30.10 in - WSW 28.8 mph 43.7 mph N/A   Overcast
6:59 PM 26.6 °F 15.7 °F 23.0 °F 86% 30.10 in - SW 12.7 mph 25.3 mph N/A   Unknown
7:19 PM 28.4 °F 11.6 °F 23.0 °F 80% 30.10 in - West 35.7 mph 44.9 mph N/A   Overcast
7:39 PM 28.4 °F 12.7 °F 21.2 °F 74% 30.09 in - WSW 29.9 mph 38.0 mph N/A   Overcast
7:59 PM 26.6 °F 11.1 °F 23.0 °F 86% 30.10 in - SW 26.5 mph 35.7 mph N/A   Unknown
8:19 PM 26.6 °F 11.1 °F 23.0 °F 86% 30.10 in - SW 26.5 mph 31.1 mph N/A   Unknown
8:39 PM 26.6 °F 12.7 °F 23.0 °F 86% 30.09 in - SW 20.7 mph - N/A   Unknown
8:59 PM 26.6 °F 12.0 °F 23.0 °F 86% 30.10 in - WSW 23.0 mph 32.2 mph N/A   Unknown
9:19 PM 26.6 °F 13.8 °F 23.0 °F 86% 30.10 in - SW 17.3 mph - N/A   Unknown
9:39 PM 26.6 °F 13.8 °F 23.0 °F 86% 30.11 in - SW 17.3 mph - N/A   Unknown
9:59 PM 26.6 °F 13.1 °F 23.0 °F 86% 30.10 in - SW 19.6 mph - N/A   Unknown
10:19 PM 26.6 °F 13.4 °F 21.2 °F 80% 30.09 in - SSW 18.4 mph - N/A   Scattered Clouds
10:39 PM 28.4 °F 14.7 °F 19.4 °F 69% 30.09 in - SW 21.9 mph 26.5 mph N/A   Overcast
10:59 PM 28.4 °F 13.3 °F 21.2 °F 74% 30.11 in - WSW 27.6 mph 44.9 mph N/A   Overcast
11:19 PM 24.8 °F 8.7 °F 23.0 °F 93% 30.10 in - West 26.5 mph - N/A   Overcast
11:39 PM 24.8 °F 10.7 °F 23.0 °F 93% 30.08 in - WSW 19.6 mph - N/A   Overcast
11:59 PM 24.8 °F 11.1 °F 21.2 °F 86% 30.07 in - SW 18.4 mph - N/A   Unknown